Wind_Speed
18 18 14 10 11 10 8 8 8 8 8 7 5 4 5 7 10 10 6 7 3 8 3 1 2 2 3 2 2 2 2 5 7 7 5 1 2 1 2 2 4 2 2 3 2
20 17 17 14 11 12 9 8 7 8 7 7 4 3 4 5 7 13 15 12 10 4 4 2 1 1 2 2 1 2 3 8 5 5 3 2 1 2 3 4 3 4 3 8 3
20 18 19 17 14 12 10 9 6 6 6 6 4 3 1 1 2 5 8 17 15 11 4 3 4 2 2 1 3 3 5 4 3 2 1 2 4 2 3 6 7 6 5 5 1
22 20 19 21 17 13 9 9 7 6 4 4 3 3 1 2 5 2 2 1 12 19 8 5 2 3 3 3 2 2 5 4 2 2 2 2 1 5 6 9 4 5 4 5 9
25 20 19 20 21 16 11 10 8 6 3 2 2 0 4 2 7 5 1 1 7 20 14 6 3 3 3 2 2 3 3 3 4 6 5 6 12 11 12 10 9 11 11 13 11
26 25 20 19 21 19 15 13 9 8 5 2 2 2 4 2 2 5 4 3 5 16 11 8 4 3 3 2 3 2 3 6 6 8 5 11 17 6 12 11 16 12 14 12 10
27 26 26 19 19 23 17 15 12 9 6 4 3 3 1 9 3 1 4 3 5 12 6 7 6 4 4 1 2 2 5 7 7 7 8 4 16 14 17 16 19 18 15 15 15
25 27 26 24 17 22 19 16 13 10 8 6 5 4 5 2 5 6 5 4 6 9 7 6 10 2 2 0 2 3 3 3 3 1 6 9 12 10 11 11 19 20 17 15 19
26 25 26 26 18 20 23 18 14 12 10 8 5 3 7 1 3 4 9 6 7 7 6 8 7 3 2 2 4 4 3 5 5 5 2 10 7 3 1 4 8 9 11 11 14
27 25 25 25 20 17 25 18 12 11 7 5 2 2 4 2 3 5 10 8 4 5 3 3 2 3 3 5 6 4 5 6 5 1 4 13 19 17 14 13 16 13 12 11 12
28 25 23 23 23 13 26 19 6 2 5 7 5 3 1 1 5 3 7 7 4 4 5 2 5 8 11 6 4 1 3 11 7 8 11 15 22 19 18 17 18 17 17 16 13
26 25 20 21 21 18 38 5 9 10 5 11 4 4 4 2 3 2 12 5 4 4 5 3 10 9 8 5 10 11 13 15 11 9 11 14 27 18 19 21 19 21 19 18 16
26 25 18 21 23 19 27 20 24 15 5 3 5 6 3 4 2 5 8 4 4 5 7 6 4 5 8 5 12 10 13 12 17 9 14 17 24 16 16 21 20 21 21 20 20
26 25 20 21 12 10 19 24 23 12 4 4 4 5 8 3 4 9 13 5 2 11 5 6 8 4 4 8 10 16 6 10 11 6 7 2 10 7 7 14 13 12 14 18 20
24 22 21 11 21 8 10 30 28 6 2 3 5 4 7 10 5 1 5 3 7 6 5 4 5 5 12 12 9 7 5 6 8 8 11 14 7 7 1 5 8 10 14 15 16
31 27 20 20 16 17 23 29 12 4 6 7 5 6 8 6 5 3 5 1 1 5 8 7 3 5 8 7 14 1 3 4 3 5 9 11 11 20 7 8 5 9 11 11 13
30 30 29 28 13 19 31 13 4 4 2 8 5 7 8 7 5 5 7 8 5 4 4 3 15 6 4 5 3 12 2 3 4 6 7 5 11 19 9 16 15 13 13 13 12
34 20 19 26 29 3 24 4 4 5 4 5 6 9 5 5 4 7 5 7 11 5 1 4 4 11 9 13 6 14 11 5 5 5 3 2 9 8 14 15 14 13 16 16 11
7 4 10 20 21 14 5 3 6 6 8 10 11 6 4 4 3 5 8 5 7 12 5 3 4 2 7 3 11 5 10 10 9 12 9 9 12 10 13 9 3 7 10 13 12
1 4 7 19 19 10 2 4 3 5 12 11 5 5 10 9 7 8 6 2 4 10 11 1 5 3 1 5 9 9 1 4 5 5 9 6 6 10 5 5 3 9 14 13 10
4 2 12 18 21 3 2 1 5 5 6 4 4 5 5 7 8 6 3 3 5 1 9 4 4 3 4 9 10 8 7 7 3 4 5 7 8 7 6 6 3 9 13 13 14
3 0 9 27 3 1 2 5 5 3 4 3 4 4 4 7 6 6 6 5 7 7 8 7 3 5 11 10 15 19 19 17 7 11 5 4 18 4 6 4 5 9 12 10 11
1 1 17 17 2 2 2 4 4 3 2 2 3 3 2 5 3 5 4 3 9 9 10 8 4 5 6 2 6 10 18 19 12 4 13 6 11 4 2 5 6 7 10 8 7
2 2 3 1 2 4 5 3 4 4 3 4 4 3 3 3 4 0 4 3 10 7 9 10 4 7 9 15 9 8 14 19 18 7 17 19 21 15 15 13 11 6 9 7 4
1 3 1 2 2 7 3 4 5 3 2 3 3 5 4 4 4 6 7 3 4 11 6 9 7 10 19 26 23 24 25 17 20 24 11 19 21 16 13 12 2 3 9 9 6
1 2 1 2 7 7 5 5 7 4 5 5 2 7 7 5 7 4 3 4 5 3 7 5 5 4 21 21 22 19 16 15 20 21 23 23 26 12 6 5 2 6 11 13 9
6 5 1 8 6 6 4 6 7 7 3 1 9 4 8 11 10 10 8 4 2 4 10 4 3 3 13 10 17 5 5 9 11 16 14 17 17 2 5 10 12 10 13 16 12
Wind_Direction
293 280 268 269 303 278 272 284 296 300 299 304 299 326 309 269 221 201 217 215 224 255 268 345 79 93 108 101 109 153 139 211 224 175 225 242 186 305 301 282 335 297 250 337 12
299 289 259 260 285 288 269 275 288 293 297 303 303 303 346 299 241 223 240 236 253 204 177 134 110 58 80 102 77 163 188 214 196 187 228 285 278 330 334 331 284 317 323 350 189
299 290 267 258 251 281 262 263 268 280 293 307 317 288 296 339 305 247 249 238 231 196 196 132 125 101 104 126 177 175 227 185 206 195 273 269 290 239 228 264 236 270 295 339 10
330 297 282 257 250 251 257 249 255 263 285 304 316 331 183 157 221 110 61 246 237 223 182 134 87 99 120 183 178 214 256 239 234 338 313 254 304 272 244 248 273 217 300 303 310
332 324 297 272 247 239 237 237 240 242 252 295 299 167 128 92 249 256 348 335 192 188 175 146 130 124 164 185 134 213 258 259 290 304 275 267 248 250 247 250 264 283 286 278 280
328 328 313 281 261 239 224 222 226 224 227 232 250 173 118 212 261 281 248 55 155 179 162 147 161 155 157 183 179 208 260 273 280 264 257 254 262 225 246 230 246 242 246 258 257
321 324 321 312 265 237 222 212 212 216 213 195 204 174 134 240 174 124 177 103 113 168 154 159 146 143 143 178 211 233 281 277 243 229 241 241 261 237 251 239 243 241 242 253 254
315 319 321 317 278 242 218 208 201 202 198 181 187 168 244 233 226 246 207 133 110 115 114 173 187 123 169 18 336 222 206 261 254 206 243 188 258 276 251 234 238 243 245 246 251
317 311 314 310 298 245 218 201 192 194 184 173 159 151 265 265 213 224 186 144 137 134 102 118 125 141 95 165 283 230 243 225 296 204 259 201 274 295 297 326 279 261 257 250 254
315 311 310 308 310 241 211 183 167 160 149 153 140 264 266 133 148 138 171 149 120 118 86 114 121 149 156 186 223 215 234 247 228 325 360 294 275 280 282 294 291 286 272 264 255
312 306 305 312 303 241 186 135 107 137 215 192 181 240 54 77 134 102 151 113 92 95 165 155 209 210 202 202 219 136 259 262 272 299 313 273 278 275 275 267 269 268 270 267 257
319 317 303 313 311 263 169 176 181 159 180 235 179 254 276 6 116 114 158 130 137 161 131 141 232 232 242 222 240 248 262 270 288 278 278 293 282 276 265 258 251 255 251 249 254
320 316 302 316 311 291 185 174 151 134 96 239 199 208 204 155 247 184 160 127 131 139 190 189 175 193 193 212 239 237 241 261 271 295 281 280 280 266 253 254 250 250 254 251 245
311 304 291 320 304 249 189 166 149 145 80 231 202 234 157 120 262 188 179 143 156 193 167 240 232 191 174 221 209 255 209 246 258 272 273 130 292 256 265 270 265 240 245 242 241
308 295 287 299 305 299 169 158 147 90 59 156 152 146 157 165 144 210 172 165 163 179 164 218 186 175 222 235 178 236 192 209 225 240 279 242 266 280 330 280 268 255 242 238 238
298 283 277 276 273 255 189 147 115 79 240 160 132 173 152 188 151 118 166 196 25 215 229 218 181 171 196 214 199 113 286 274 243 229 245 234 205 277 263 240 258 259 259 245 244
296 275 262 243 241 245 162 118 106 150 170 155 160 166 171 162 167 161 169 182 185 179 224 248 235 195 175 202 186 182 202 229 231 215 249 199 191 244 298 294 273 272 266 258 242
317 293 248 203 207 170 153 136 110 156 160 134 126 130 165 136 202 178 156 203 214 191 168 221 303 192 186 214 189 190 197 218 231 214 250 215 235 245 227 252 268 287 288 286 254
325 111 156 189 195 194 189 126 169 173 145 133 124 144 176 200 186 170 209 215 195 187 199 195 263 14 199 204 217 176 215 232 268 265 268 239 262 293 259 257 300 307 311 294 263
88 179 180 185 179 200 183 122 110 116 116 137 131 172 178 187 171 184 195 225 207 180 195 173 275 205 257 186 239 231 190 180 197 248 243 247 248 235 277 263 312 341 343 334 302
320 275 150 159 145 138 128 142 90 87 112 145 122 141 156 164 174 185 202 265 199 133 160 142 187 229 139 206 212 197 222 213 249 217 252 272 257 211 218 152 9 342 347 339 326
287 198 161 147 100 111 150 139 115 108 53 93 94 104 140 158 168 195 211 227 179 147 167 185 222 249 229 217 204 219 223 216 229 217 214 236 260 157 147 165 55 3 346 353 343
245 54 139 135 129 150 167 74 90 107 112 94 89 67 101 152 173 202 182 207 169 166 167 166 214 295 292 8 230 229 224 220 234 242 228 231 257 228 201 18 31 357 349 6 2
83 90 65 185 294 116 128 81 94 46 82 90 98 94 94 202 221 149 218 248 190 192 176 172 210 218 252 265 255 247 233 224 221 235 246 234 262 267 295 301 325 358 358 357 329
144 79 195 150 192 166 80 109 112 138 57 105 143 210 167 222 211 220 220 259 171 190 192 178 252 238 252 261 271 267 267 237 214 230 229 254 248 262 253 261 277 326 318 336 254
21 146 169 110 142 151 127 196 168 136 145 177 233 185 193 222 217 175 183 179 216 128 172 202 264 267 274 270 268 269 274 235 220 228 239 254 264 265 276 185 202 333 324 289 258
337 290 77 159 156 155 176 168 184 124 254 169 207 200 224 248 238 252 252 237 212 166 193 208 239 277 286 319 301 261 262 209 215 219 225 238 247 268 292 281 300 294 256 262 232
Height
786 785 785 785 785 785 784 784 783 782 782 780 779 778 779 779 781 781 783 781 783 783 784 784 785 785 785 787 789 790 799 801 797 801 791 785 786 779 778 778 777 773 772 772 770
784 782 782 782 782 782 781 782 780 781 780 780 777 777 777 779 779 777 776 778 780 783 782 784 785 785 787 788 789 791 798 794 790 790 789 786 786 784 782 781 778 775 771 771 771
781 779 778 779 779 778 779 780 779 779 778 778 776 776 777 779 780 774 773 774 778 780 782 784 785 785 788 788 790 793 793 788 785 784 785 787 787 782 782 784 776 775 771 770 770
777 775 775 775 776 776 775 778 777 776 777 776 776 776 776 778 784 772 772 771 773 777 782 784 786 787 791 791 790 795 789 788 785 783 785 787 784 783 781 774 771 771 772 771 770
776 771 770 770 771 771 772 774 775 775 775 775 776 776 776 780 776 772 771 770 772 774 778 782 786 787 790 793 793 794 790 787 785 786 786 784 782 781 776 771 771 771 770 769 768
774 769 766 766 767 768 769 771 771 774 774 773 775 776 776 782 770 770 771 770 771 773 776 779 782 785 790 792 793 792 791 789 786 784 782 781 775 779 765 767 766 767 766 764 764
771 767 763 761 761 763 764 767 769 771 772 773 775 775 776 771 768 769 770 770 771 772 775 778 781 785 789 792 790 791 793 787 783 781 780 777 773 770 761 762 759 758 759 759 757
768 764 761 756 755 757 760 764 766 768 771 772 774 775 772 764 767 768 770 770 772 773 775 778 782 785 788 791 790 792 791 789 779 777 775 775 766 758 755 756 754 753 752 754 750
764 761 757 752 750 752 755 759 763 766 770 772 774 775 770 764 765 765 768 769 772 775 777 780 782 788 791 793 795 791 791 790 781 773 773 775 766 754 754 755 754 752 751 751 749
760 757 753 750 745 747 749 756 761 766 769 771 773 777 765 763 763 764 766 769 772 776 780 782 786 790 791 792 793 790 789 784 783 777 776 775 765 759 755 752 748 748 747 747 746
755 752 749 745 742 741 746 751 761 767 767 764 764 766 761 762 762 765 766 769 772 778 785 784 786 787 785 789 787 790 791 786 781 776 780 770 758 754 750 749 747 744 742 739 739
751 747 744 742 737 733 731 738 740 743 761 759 762 764 763 762 762 765 767 771 774 781 785 788 786 779 778 783 785 784 785 783 776 777 779 771 747 748 744 736 734 732 732 732 730
746 743 740 738 733 729 724 730 735 737 755 757 757 760 762 763 762 763 766 770 775 783 784 782 777 777 782 786 785 786 786 781 780 782 778 774 739 725 717 719 721 723 721 721 721
741 738 736 734 731 724 723 726 731 738 778 758 757 755 758 760 762 758 762 766 774 777 784 783 774 778 786 785 787 786 782 780 784 790 782 776 749 721 717 714 712 716 714 712 712
734 732 731 734 730 725 723 725 728 737 789 753 755 753 753 759 757 760 760 762 769 772 777 773 774 780 779 777 784 780 777 780 781 784 781 771 779 716 725 721 715 708 704 704 703
725 723 726 727 725 721 725 724 728 754 779 745 748 749 753 755 753 759 759 761 764 765 767 771 771 772 773 772 773 773 780 779 778 779 766 756 766 709 713 709 706 701 698 698 697
710 707 712 718 717 717 719 723 741 756 738 744 743 744 744 751 753 753 758 763 764 768 771 766 762 763 766 770 772 773 780 772 769 764 750 747 757 712 708 706 704 699 694 691 690
700 695 698 703 711 712 713 725 742 726 734 730 736 743 746 747 748 750 756 758 757 762 766 762 769 759 761 759 762 767 769 759 756 755 748 752 733 709 701 694 692 691 690 686 685
693 694 696 700 707 714 717 717 715 719 721 727 739 744 749 749 751 749 752 753 747 755 762 766 766 762 762 760 760 765 764 755 757 747 747 725 713 704 695 697 696 694 688 683 679
695 697 697 701 707 716 720 707 711 710 715 723 731 739 744 747 753 751 752 750 748 745 750 760 769 759 757 756 756 756 757 759 760 748 731 717 720 700 695 689 695 691 686 678 675
698 695 695 701 708 714 710 712 711 712 712 720 726 735 736 739 745 745 750 748 748 750 750 759 766 761 758 755 744 753 751 751 747 739 724 714 695 691 686 689 690 688 681 679 675
697 693 696 699 710 717 711 707 708 717 716 719 720 726 732 738 742 742 748 747 747 751 755 753 760 762 751 732 731 733 730 734 730 720 724 723 681 682 688 689 686 683 679 678 679
695 692 700 700 707 710 709 709 711 716 718 719 724 723 726 735 742 742 747 741 745 745 749 750 754 757 740 737 728 731 720 722 725 727 714 718 677 675 681 682 681 682 680 678 683
697 696 705 710 708 708 707 711 715 716 719 717 722 724 730 731 733 739 744 737 741 741 739 741 746 741 727 716 721 719 716 719 722 714 693 695 682 682 676 676 676 680 680 679 685
697 703 707 709 711 707 703 710 719 721 719 719 725 723 726 729 732 733 739 739 740 739 740 743 740 736 725 714 716 712 705 708 707 700 704 672 680 678 677 677 680 682 682 677 684
696 696 703 704 704 703 706 715 714 718 720 722 726 722 725 727 727 732 733 736 731 737 740 737 732 730 713 705 698 697 687 688 697 697 691 684 673 674 673 672 676 679 680 677 678
705 699 697 706 705 703 710 714 714 714 718 715 718 721 724 720 723 724 724 726 726 729 731 732 733 724 697 690 685 680 674 681 685 685 683 685 670 669 668 670 670 671 680 675 673